Regional Weather Roundup
Issued by NWS

Home | Current Version | Previous Version | Text Only | Print | Product List | Glossary Off
Versions: 1 2 3 4 5 6 7 8 9 10 11 12 13 14 15 16 17 18 19 20 21 22 23 24 25 26 27 28 29 30 31 32 33 34 35 36 37 38 39 40 41 42 43 44 45 46 47 48 49 50

000
ASUS43 KLOT 170610
RWRIL

ILLINOIS REGIONAL WEATHER ROUNDUP
NATIONAL WEATHER SERVICE CHICAGO/ROMEOVILLE IL
100 AM CDT THU APR 17 2014

NOTE: "FAIR" INDICATES FEW OR NO CLOUDS BELOW 12,000 FEET WITH NO
SIGNIFICANT WEATHER AND/OR OBSTRUCTIONS TO VISIBILITY.

* THESE STATIONS ARE NOT UNDER NWS QUALITY CONTROL. THEY ALSO MAY NOT
  REPORT WEATHER SUCH AS PRECIPITATION OR FOG.

ILZ001-002-007-009-015-016-024-170700-
NORTHWEST ILLINOIS

CITY           SKY/WX    TMP DP  RH WIND       PRES   REMARKS
MOLINE         FAIR      46  28  49 S16G26    30.00F
6HR MIN TEMP:  46; 6HR MAX TEMP:  53;

STERLING*      CLOUDY    45  30  57 SE9G16    30.06S
SAVANNA*       MOCLDY    46  30  55 SE15G23   30.02S
$$

ILZ003-004-008-010-011-017-018-170700-
NORTH CENTRAL ILLINOIS

CITY           SKY/WX    TMP DP  RH WIND       PRES   REMARKS
ROCKFORD       CLOUDY    43  28  55 SE18G24   30.11S
6HR MIN TEMP:  42; 6HR MAX TEMP:  50;

FREEPORT*      MOCLDY    46  31  57 SE21G30   30.06S
ROCHELLE*      FAIR      40  30  68 SE15      30.09S
DE KALB*       FAIR      39  27  63 SE16      30.11F WCI  30
PERU*          FAIR      43  30  60 SE16      30.10S
$$

ILZ005-006-012>014-019>023-170700-
NORTHEAST ILLINOIS

CITY           SKY/WX    TMP DP  RH WIND       PRES   REMARKS
CHICAGO-OHARE  MOCLDY    43  23  45 SE14      30.15F
6HR MIN TEMP:  43; 6HR MAX TEMP:  50;

CHICAGO-MIDWAY MOCLDY    44  25  47 SE13G23   30.17F
6HR MIN TEMP:  44; 6HR MAX TEMP:  50;

AURORA         FAIR      41  27  57 SE12      30.14S
6HR MIN TEMP:  41; 6HR MAX TEMP:  50;

LANSING*       FAIR      42  25  51 SE15      30.19S
WAUKEGAN       FAIR      40  30  67 SE14G20   30.15S
6HR MIN TEMP:  40; 6HR MAX TEMP:  42;

DUPAGE AIRPORT FAIR      43  25  49 S14       30.14S
6HR MIN TEMP:  42; 6HR MAX TEMP:  50;

KANKAKEE*      FAIR      37  29  74 SE8       30.18F WCI  30
WHEELING       FAIR      44  24  45 S15G25    30.16F
6HR MIN TEMP:  44; 6HR MAX TEMP:  50;

MORRIS*        FAIR      43  24  46 SE15      30.14S
ROMEOVILLE*    FAIR      40  27  58 SE15      30.15S
NORTHERLY ISL    N/A     43  29  58 SE17        N/A
$$

LMZ740>746-170700-
SOUTHERN LAKE MICHIGAN

STATION/POSITION SKY/WX   TEMP    WIND        PRES    VSBY  WAVE
                          AIR SEA DIR/SP/G                  HT/PER
                          (F)     (DEG/KT/KT) (MB)    (MI)  (FT/S)
WAUKEGAN HARBOR            40     150/ 17/ 19 1022.4S
HARRISON CRIB              44     160/ 19/ 25   N/A
BURNHAM HARBOR             43     140/ 13/ 18   N/A
CALUMET HARBOR             43     140/ 10/ 19 1022.7R
MICHIGAN CITY              43     130/ 14/ 23   N/A
$$

ILZ025>027-034>036-040-047-049-050-058-095>099-170700-
WEST-CENTRAL ILLINOIS

CITY           SKY/WX    TMP DP  RH WIND       PRES   REMARKS
QUINCY         FAIR      49  25  39 S14       30.06R
GALESBURG*     FAIR      44  32  61 S14       30.05S
MACOMB*        FAIR      45  29  54 S13       30.08S
JACKSONVILLE*  FAIR      47  29  49 S13G18    30.11S
PITTSFIELD*    FAIR      48  28  46 S10       30.10R
$$

ILZ028>032-037-038-041>044-048-051>054-059>061-170700-
CENTRAL ILLINOIS

CITY           SKY/WX    TMP DP  RH WIND       PRES   REMARKS
PONTIAC        FAIR      43  30  61 SE14      30.14S
BLOOMINGTON    FAIR      39  28  65 S17       30.13F WCI  30
DECATUR        FAIR      41  30  65 S10       30.16S
PEORIA         FAIR      47  29  49 S16G25    30.10S
6HR MIN TEMP:  47; 6HR MAX TEMP:  53;

LACON*         FAIR      45  29  53 S15G23    30.09S
LINCOLN*       FAIR      42  32  67 S8        30.14S
SPRINGFIELD    FAIR      46  30  53 S13       30.13R
6HR MIN TEMP:  46; 6HR MAX TEMP:  53;

TAYLORVILLE    FAIR      41  30  65 SE12      30.14F
$$

ILZ033-039-045-046-055>057-062-063-170700-
EAST-CENTRAL ILLINOIS

CITY           SKY/WX    TMP DP  RH WIND       PRES   REMARKS
CHAMPAIGN      FAIR      34  28  79 SE7       30.17S WCI  28
RANTOUL*       FAIR      39  29  66 CALM      30.18S
MATTOON        FAIR      41  27  57 S7        30.18R
PARIS*         FAIR      38  29  69 SE5       30.20S WCI  35
$$

ILZ079-100>102-170700-
SOUTHWEST ILLINOIS

CITY           SKY/WX    TMP DP  RH WIND       PRES   REMARKS
ALTON          FAIR      44  28  51 S6        30.15S
BELLEVILLE     FAIR      39  35  84 SE7       30.16S WCI  34
CAHOKIA*       FAIR      42  31  64 SE6       30.15S
SPARTA*        FAIR      37  32  81 CALM      30.18F
$$

ILZ064>066-069>071-074>076-080>082-084>086-088>090-092>094-170700-
SOUTH-CENTRAL ILLINOIS

CITY           SKY/WX    TMP DP  RH WIND       PRES   REMARKS
CARBONDALE     FAIR      42  31  64 CALM      30.19R
6HR MIN TEMP:  42; 6HR MAX TEMP:  54;

CAIRO*         FAIR      45  37  75 CALM      30.18R
MARION         FAIR      39  32  75 CALM      30.19R
MT. VERNON     FAIR      37  25  60 CALM      30.19S
CENTRALIA*       N/A     41  30  65 S3        30.18S
SALEM*         FAIR      41  32  70 CALM      30.18S
METROPOLIS*    FAIR      42  32  68 CALM      30.18R
$$

ILZ067-068-072-073-078-083-087-091-170700-
SOUTHEAST ILLINOIS

CITY           SKY/WX    TMP DP  RH WIND       PRES   REMARKS
FAIRFIELD*     FAIR      46  32  57 CALM      30.19R
HARRISBURG*    FAIR      42  33  68 CALM      30.20R
ROBINSON*      FAIR      42  31  64 CALM      30.22R
CARMI*         FAIR      45  35  67 SE5       30.19R
$$

ABBREVIATIONS USED IN REMARKS
   TC - TEMPERATURE IN CELSIUS
  WCI - WIND CHILL INDEX
   HX - HEAT INDEX
  VSB - VISIBILITY
$$




USA.gov is the U.S. government's official web portal to all federal, state and local government web resources and services.